Location: Newark
(48.8481°N, 20.9372°E)
Time: 07:33:30
(UTC+00:00)

Envisat - Visible Passes

Search period start: 25 January 2020 00:00
Search period end: 04 February 2020 00:00
Orbit: 764 x 766 km, 98.1° (Epoch: 24 January)

Date Brightness Start Highest point End Pass type
(mag) Time Alt. Az. Time Alt. Az. Time Alt. Az.
25 Jan 5.2 04:32:53 10° NNE 04:37:18 29° E 04:41:41 10° SSE visible
25 Jan 3.1 15:51:05 10° SSE 15:56:02 56° ENE 16:01:00 10° N visible
25 Jan 5.5 17:31:27 10° SW 17:35:24 22° W 17:39:22 10° NW visible
26 Jan 6.2 03:57:22 10° NE 04:00:06 14° E 04:02:48 10° ESE visible
26 Jan 3.0 05:34:42 10° NNE 05:39:49 86° WNW 05:44:54 10° SSW visible
26 Jan 4.2 16:53:29 10° S 16:58:20 45° W 17:03:13 10° NNW visible
27 Jan 4.2 04:58:02 10° NNE 05:02:57 47° E 05:07:51 10° S visible
27 Jan 3.0 16:16:22 10° SSE 16:21:28 90° ENE 16:26:35 10° NNW visible
27 Jan 6.2 17:58:43 10° WSW 18:01:12 14° W 18:03:43 10° WNW visible
28 Jan 5.5 04:21:50 10° NE 04:25:54 24° E 04:29:57 10° SE visible
28 Jan 5.2 17:19:41 10° SSW 17:24:00 27° W 17:28:20 10° NW visible
29 Jan 6.4 03:47:02 10° ENE 03:48:38 11° E 03:50:14 10° ESE visible
29 Jan 3.2 05:23:25 10° NNE 05:28:32 78° ESE 05:33:36 10° S visible
29 Jan 3.8 16:42:01 10° S 16:46:59 56° W 16:52:00 10° NNW visible
30 Jan 4.6 04:46:51 10° NNE 04:51:36 38° E 04:56:19 10° SSE visible
30 Jan 3.0 16:05:07 10° SSE 16:10:10 74° ENE 16:15:16 10° N visible
30 Jan 5.9 17:46:31 10° SW 17:49:46 17° W 17:53:02 10° NW visible
31 Jan 5.8 04:10:52 10° NE 04:14:30 19° E 04:18:05 10° SE visible
31 Jan 4.8 17:08:01 10° SSW 17:12:37 34° W 17:17:14 10° NNW visible
01 Feb 3.6 05:12:08 10° NNE 05:17:12 64° ESE 05:22:14 10° S visible
01 Feb 3.4 16:30:37 10° S 16:35:40 69° WSW 16:40:46 10° NNW visible
02 Feb 5.0 04:35:43 10° NNE 04:40:14 31° E 04:44:43 10° SSE visible
02 Feb 5.7 17:34:34 10° SW 17:38:21 21° W 17:42:09 10° NW visible
03 Feb 6.1 04:00:02 10° NE 04:03:03 16° E 04:06:03 10° SE visible
03 Feb 4.4 16:56:27 10° SSW 17:01:15 41° W 17:06:04 10° NNW visible
